﻿#,"Date Time, GMT+00:00","Temp, °C (LGR S/N: 10121356, SEN S/N: 10121356)","RH, % (LGR S/N: 10121356, SEN S/N: 10121356)","DewPt, °C (LGR S/N: 10121356, SEN S/N: 10121356)",Coupler Detached (LGR S/N: 10121356),Coupler Attached (LGR S/N: 10121356),Host Connected (LGR S/N: 10121356),End Of File (LGR S/N: 10121356)
1,3/29/2019 12:00,15.055,54.646,6.275,Logged,,,
2,3/29/2019 12:15,14.792,56.699,6.547,,,,
3,3/29/2019 12:30,14.601,55.217,5.996,,,,
4,3/29/2019 12:45,15.055,54.859,6.329,,,,
5,3/29/2019 13:00,14.984,55,6.299,,,,
6,3/29/2019 13:15,14.936,54.628,6.158,,,,
7,3/29/2019 13:30,15.127,54.595,6.329,,,,
8,3/29/2019 13:45,15.509,53.766,6.469,,,,
9,3/29/2019 14:00,15.605,53.566,6.505,,,,
10,3/29/2019 14:15,15.819,52.554,6.435,,,,
11,3/29/2019 14:30,16.511,51.417,6.765,,,,
12,3/29/2019 14:45,16.844,45.527,5.337,,,,
13,3/29/2019 15:00,17.486,45.732,5.988,,,,
14,3/29/2019 15:15,17.439,46.136,6.071,,,,
15,3/29/2019 15:30,15.963,51.527,6.288,,,,
16,3/29/2019 15:45,15.891,52.102,6.379,,,,
17,3/29/2019 16:00,15.939,52.663,6.575,,,,
18,3/29/2019 16:15,15.557,54.537,6.714,,,,
19,3/29/2019 16:30,14.936,56.116,6.536,,,,
20,3/29/2019 16:45,14.17,56.845,5.999,,,,
21,3/29/2019 17:00,13.69,58.242,5.887,,,,
22,3/29/2019 17:15,13.401,58.943,5.782,,,,
23,3/29/2019 17:30,13.161,59.411,5.664,,,,
24,3/29/2019 17:45,12.775,58.814,5.161,,,,
25,3/29/2019 18:00,12.316,59.335,4.85,,,,
26,3/29/2019 18:15,11.88,61.126,4.846,,,,
27,3/29/2019 18:30,11.492,63.259,4.947,,,,
28,3/29/2019 18:45,11.151,64.857,4.962,,,,
29,3/29/2019 19:00,10.785,67.183,5.09,,,,
30,3/29/2019 19:15,10.492,68.928,5.155,,,,
31,3/29/2019 19:30,10.124,70.473,5.099,,,,
32,3/29/2019 19:45,9.608,73.149,5.098,,,,
33,3/29/2019 20:00,9.213,75.039,5.054,,,,
34,3/29/2019 20:15,8.817,76.908,4.994,,,,
35,3/29/2019 20:30,8.419,78.838,4.931,,,,
36,3/29/2019 20:45,8.17,79.621,4.816,,,,
37,3/29/2019 21:00,7.82,80.807,4.666,,,,
38,3/29/2019 21:15,7.645,81.436,4.594,,,,
39,3/29/2019 21:30,7.393,82.205,4.469,,,,
40,3/29/2019 21:45,7.167,82.764,4.334,,,,
41,3/29/2019 22:00,6.914,83.314,4.171,,,,
42,3/29/2019 22:15,6.611,84.4,4.037,,,,
43,3/29/2019 22:30,6.535,85.037,4.058,,,,
44,3/29/2019 22:45,6.458,85.515,4.054,,,,
45,3/29/2019 23:00,6.306,85.895,3.959,,,,
46,3/29/2019 23:15,6.179,86.488,3.921,,,,
47,3/29/2019 23:30,6.026,86.917,3.832,,,,
48,3/29/2019 23:45,5.949,87.57,3.85,,,,
49,3/30/2019 0:00,5.924,87.563,3.824,,,,
50,3/30/2019 0:15,5.796,87.532,3.693,,,,
51,3/30/2019 0:30,5.796,87.764,3.726,,,,
52,3/30/2019 0:45,5.642,88.111,3.624,,,,
53,3/30/2019 1:00,5.488,88.79,3.567,,,,
54,3/30/2019 1:15,5.514,88.924,3.611,,,,
55,3/30/2019 1:30,5.385,89.071,3.504,,,,
56,3/30/2019 1:45,5.308,89.307,3.461,,,,
57,3/30/2019 2:00,5.102,89.992,3.351,,,,
58,3/30/2019 2:15,5.102,90.093,3.365,,,,
59,3/30/2019 2:30,4.818,90.451,3.132,,,,
60,3/30/2019 2:45,4.662,91.345,3.098,,,,
61,3/30/2019 3:00,4.402,92.405,2.981,,,,
62,3/30/2019 3:15,4.194,93.098,2.864,,,,
63,3/30/2019 3:30,4.115,93.748,2.871,,,,
64,3/30/2019 3:45,3.958,94.423,2.801,,,,
65,3/30/2019 4:00,3.827,95.028,2.747,,,,
66,3/30/2019 4:15,3.906,95.59,2.897,,,,
67,3/30/2019 4:30,3.958,96.045,3.006,,,,
68,3/30/2019 4:45,4.063,96.319,3.145,,,,
69,3/30/2019 5:00,3.932,96.527,3.04,,,,
70,3/30/2019 5:15,3.932,96.673,3.059,,,,
71,3/30/2019 5:30,3.775,96.776,2.914,,,,
72,3/30/2019 5:45,3.958,96.997,3.125,,,,
73,3/30/2019 6:00,3.827,96.985,2.992,,,,
74,3/30/2019 6:15,3.643,97.177,2.832,,,,
75,3/30/2019 6:30,3.775,97.262,2.974,,,,
76,3/30/2019 6:45,3.827,97.228,3.022,,,,
77,3/30/2019 7:00,4.089,97.252,3.288,,,,
78,3/30/2019 7:15,4.35,97.081,3.528,,,,
79,3/30/2019 7:30,4.61,96.616,3.731,,,,
80,3/30/2019 7:45,4.818,95.617,3.812,,,,
81,3/30/2019 8:00,5.308,93.992,4.093,,,,
82,3/30/2019 8:15,5.847,92.155,4.386,,,,
83,3/30/2019 8:30,5.898,90.931,4.271,,,,
84,3/30/2019 8:45,6,89.685,4.2,,,,
85,3/30/2019 9:00,6.458,88.03,4.42,,,,
86,3/30/2019 9:15,7.116,85.986,4.773,,,,
87,3/30/2019 9:30,7.82,82.569,4.945,,,,
88,3/30/2019 9:45,7.745,82.099,4.798,,,,
89,3/30/2019 10:00,8.045,80.911,4.903,,,,
90,3/30/2019 10:15,9.534,77.498,5.793,,,,
91,3/30/2019 10:30,9.583,75.115,5.427,,,,
92,3/30/2019 10:45,10.198,73.546,5.742,,,,
93,3/30/2019 11:00,9.558,73.891,5.185,,,,
94,3/30/2019 11:15,10.59,70.958,5.64,,,,
95,3/30/2019 11:30,10.956,70.265,5.861,,,,
96,3/30/2019 11:45,11.078,69.322,5.795,,,,
97,3/30/2019 12:00,11.297,68.222,5.789,,,,
98,3/30/2019 12:15,11.807,68.832,6.4,,,,
99,3/30/2019 12:30,11.175,70.25,6.069,,,,
100,3/30/2019 12:45,11.88,68.674,6.438,,,,
101,3/30/2019 13:00,12.268,67.31,6.536,,,,
102,3/30/2019 13:15,12.34,66.862,6.514,,,,
103,3/30/2019 13:30,12.389,66.986,6.585,,,,
104,3/30/2019 13:45,11.856,69.041,6.488,,,,
105,3/30/2019 14:00,11.929,68.654,6.481,,,,
106,3/30/2019 14:15,12.243,68.34,6.721,,,,
107,3/30/2019 14:30,12.775,66.854,6.928,,,,
108,3/30/2019 14:45,13.714,64.666,7.365,,,,
109,3/30/2019 15:00,12.799,65.873,6.748,,,,
110,3/30/2019 15:15,13.112,65.609,6.992,,,,
111,3/30/2019 15:30,13.064,65.397,6.901,,,,
112,3/30/2019 15:45,13.642,63.598,7.065,,,,
113,3/30/2019 16:00,12.847,63.433,6.273,,,,
114,3/30/2019 16:15,13.473,62.894,6.751,,,,
115,3/30/2019 16:30,12.823,64.51,6.483,,,,
116,3/30/2019 16:45,12.316,64.684,6.036,,,,
117,3/30/2019 17:00,12.243,64.904,6.014,,,,
118,3/30/2019 17:15,12.316,65.294,6.165,,,,
119,3/30/2019 17:30,12.34,65.327,6.195,,,,
120,3/30/2019 17:45,11.637,68.314,6.134,,,,
121,3/30/2019 18:00,11.029,71.297,6.128,,,,
122,3/30/2019 18:15,10.907,72.4,6.217,,,,
123,3/30/2019 18:30,10.541,73.811,6.122,,,,
124,3/30/2019 18:45,10.345,74.856,6.121,,,,
125,3/30/2019 19:00,10.001,75.81,5.956,,,,
126,3/30/2019 19:15,10.001,76.554,6.086,,,,
127,3/30/2019 19:30,9.015,82.549,6.116,,,,
128,3/30/2019 19:45,8.568,84.782,6.024,,,,
129,3/30/2019 20:00,8.369,85.447,5.929,,,,
130,3/30/2019 20:15,8.344,85.835,5.963,,,,
131,3/30/2019 20:30,8.319,85.96,5.957,,,,
132,3/30/2019 20:45,8.344,86.045,5.994,,,,
133,3/30/2019 21:00,8.319,86.065,5.973,,,,
134,3/30/2019 21:15,8.17,86.553,5.898,,,,
135,3/30/2019 21:30,8.12,86.279,5.808,,,,
136,3/30/2019 21:45,7.87,87.21,5.698,,,,
137,3/30/2019 22:00,7.72,88.367,5.718,,,,
138,3/30/2019 22:15,7.419,89.35,5.56,,,,
139,3/30/2019 22:30,7.167,90.363,5.453,,,,
140,3/30/2019 22:45,7.066,91.408,5.498,,,,
141,3/30/2019 23:00,6.763,91.635,5.227,,,,
142,3/30/2019 23:15,6.712,91.495,5.158,,,,
143,3/30/2019 23:30,6.737,91.476,5.18,,,,
144,3/30/2019 23:45,6.788,89.833,5.003,,,,
145,3/31/2019 0:00,6.864,85.664,4.476,,,,
146,3/31/2019 0:15,6.965,80.295,3.746,,,,
147,3/31/2019 0:30,6.661,84.15,4.049,,,,
148,3/31/2019 0:45,6.56,84.493,4.001,,,,
149,3/31/2019 1:00,6.56,81.564,3.551,,,,
150,3/31/2019 1:15,6.737,77.391,3.049,,,,
151,3/31/2019 1:30,6.737,74.831,2.614,,,,
152,3/31/2019 1:45,6.585,74.963,2.489,,,,
153,3/31/2019 2:00,6.458,75.347,2.432,,,,
154,3/31/2019 2:15,6.357,76.74,2.569,,,,
155,3/31/2019 2:30,6.433,76.784,2.651,,,,
156,3/31/2019 2:45,6.535,77.672,2.898,,,,
157,3/31/2019 3:00,6.408,79.662,3.099,,,,
158,3/31/2019 3:15,6.433,79.909,3.164,,,,
159,3/31/2019 3:30,6.357,80.426,3.172,,,,
160,3/31/2019 3:45,6.509,80.514,3.335,,,,
161,3/31/2019 4:00,6.408,81.13,3.333,,,,
162,3/31/2019 4:15,6.408,81.343,3.367,,,,
163,3/31/2019 4:30,6.255,82.342,3.373,,,,
164,3/31/2019 4:45,5.949,84.087,3.338,,,,
165,3/31/2019 5:00,5.821,85.467,3.418,,,,
166,3/31/2019 5:15,5.745,86.642,3.514,,,,
167,3/31/2019 5:30,5.77,86.544,3.525,,,,
168,3/31/2019 5:45,5.642,87.288,3.506,,,,
169,3/31/2019 6:00,5.565,87.475,3.457,,,,
170,3/31/2019 6:15,5.565,87.784,3.501,,,,
171,3/31/2019 6:30,5.77,87.397,3.648,,,,
172,3/31/2019 6:45,5.719,87.513,3.614,,,,
173,3/31/2019 7:00,5.975,87.137,3.813,,,,
174,3/31/2019 7:15,6.331,85.537,3.932,,,,
175,3/31/2019 7:30,6.509,82.321,3.619,,,,
176,3/31/2019 7:45,6.687,80.019,3.43,,,,
177,3/31/2019 8:00,7.041,76.505,3.196,,,,
178,3/31/2019 8:15,7.217,75.149,3.135,,,,
179,3/31/2019 8:30,7.519,72.426,2.946,,,,
180,3/31/2019 8:45,7.67,70.924,2.817,,,,
181,3/31/2019 9:00,7.72,69.308,2.562,,,,
182,3/31/2019 9:15,8.27,66.922,2.628,,,,
183,3/31/2019 9:30,9.583,64.292,3.349,,,,
184,3/31/2019 9:45,9.336,62.396,2.712,,,,
185,3/31/2019 10:00,9.731,58.772,2.282,,,,
186,3/31/2019 10:15,10.296,54.667,1.834,,,,
187,3/31/2019 10:30,9.952,57.151,2.113,,,,
188,3/31/2019 10:45,9.558,54.407,1.08,,,,
189,3/31/2019 11:00,11.273,50.114,1.559,,,,
190,3/31/2019 11:15,10.075,52.166,0.994,,,,
191,3/31/2019 11:30,10.565,52.72,1.593,,,,
192,3/31/2019 11:45,9.583,56.053,1.505,,,,
193,3/31/2019 12:00,10.001,55.102,1.666,,,,
194,3/31/2019 12:15,9.829,54.178,1.276,,,,
195,3/31/2019 12:30,9.756,53.266,0.979,,,,
196,3/31/2019 12:45,9.706,52.657,0.777,,,,
197,3/31/2019 13:00,10.369,52.026,1.231,,,,
198,3/31/2019 13:15,10.026,52.763,1.102,,,,
199,3/31/2019 13:30,9.854,52.708,0.928,,,,
200,3/31/2019 13:45,9.731,52.781,0.832,,,,
201,3/31/2019 14:00,9.928,52.93,1.053,,,,
202,3/31/2019 14:15,9.805,52.912,0.934,,,,
203,3/31/2019 14:30,9.682,51.929,0.567,,,,
204,3/31/2019 14:45,10.222,50.975,0.818,,,,
205,3/31/2019 15:00,9.952,51.119,0.606,,,,
206,3/31/2019 15:15,9.731,51.543,0.512,,,,
207,3/31/2019 15:30,9.78,52.124,0.709,,,,
208,3/31/2019 15:45,10.051,49.582,0.284,,,,
209,3/31/2019 16:00,9.657,52.65,0.73,,,,
210,3/31/2019 16:15,9.608,54.594,1.173,,,,
211,3/31/2019 16:30,9.163,55.572,0.996,,,,
212,3/31/2019 16:45,9.04,56.148,1.018,,,,
213,3/31/2019 17:00,8.916,55.803,0.819,,,,
214,3/31/2019 17:15,8.693,55.441,0.523,,,,
215,3/31/2019 17:30,8.319,56.068,0.323,,,,
216,3/31/2019 17:45,8.145,57.282,0.444,,,,
217,3/31/2019 18:00,8.195,58.203,0.703,,,,
218,3/31/2019 18:15,7.895,58.86,0.57,,,,
219,3/31/2019 18:30,7.72,60.233,0.71,,,,
220,3/31/2019 18:45,7.217,63.159,0.859,,,,
221,3/31/2019 19:00,6.712,65.643,0.883,,,,
222,3/31/2019 19:15,6.611,66.278,0.912,,,,
223,3/31/2019 19:30,6.458,68.029,1.106,,,,
224,3/31/2019 19:45,6,70.849,1.192,,,,
225,3/31/2019 20:00,6.077,70.113,1.131,,,,
226,3/31/2019 20:15,5.872,71.6,1.205,,,,
227,3/31/2019 20:30,5.616,72.239,1.072,,,,
228,3/31/2019 20:45,5.411,73.325,1.065,,,,
229,3/31/2019 21:00,5.024,74.122,0.829,,,,
230,3/31/2019 21:15,5.334,73.392,1.002,,,,
231,3/31/2019 21:30,5.102,74.601,0.986,,,,
232,3/31/2019 21:45,4.584,76.039,0.726,,,,
233,3/31/2019 22:00,4.61,77.338,0.966,,,,
234,3/31/2019 22:15,4.636,77.451,1.01,,,,
235,3/31/2019 22:30,4.506,77.208,0.844,,,,
236,3/31/2019 22:45,4.688,76.951,0.979,,,,
237,3/31/2019 23:00,4.844,76.553,1.064,,,,
238,3/31/2019 23:15,4.792,76.623,1.025,,,,
239,3/31/2019 23:30,4.714,77.548,1.102,,,,
240,3/31/2019 23:45,4.506,78.681,1.082,,,,
241,4/1/2019 0:00,4.246,79.609,0.976,,,,
242,4/1/2019 0:15,4.194,80.048,0.994,,,,
243,4/1/2019 0:30,4.089,79.919,0.871,,,,
244,4/1/2019 0:45,4.168,79.857,0.938,,,,
245,4/1/2019 1:00,4.246,79.423,0.946,,,,
246,4/1/2019 1:15,4.037,79.536,0.76,,,,
247,4/1/2019 1:30,4.037,80.146,0.855,,,,
248,4/1/2019 1:45,4.037,80.278,0.876,,,,
249,4/1/2019 2:00,4.063,80.522,0.94,,,,
250,4/1/2019 2:15,4.063,80.601,0.952,,,,
251,4/1/2019 2:30,4.168,80.44,1.029,,,,
252,4/1/2019 2:45,4.089,80.184,0.912,,,,
253,4/1/2019 3:00,4.141,80.09,0.949,,,,
254,4/1/2019 3:15,4.194,79.65,0.931,,,,
255,4/1/2019 3:30,4.272,78.603,0.841,,,,
256,4/1/2019 3:45,4.454,77.412,0.826,,,,
257,4/1/2019 4:00,4.402,77.105,0.725,,,,
258,4/1/2019 4:15,4.194,76.98,0.501,,,,
259,4/1/2019 4:30,4.272,75.865,0.393,,,,
260,4/1/2019 4:45,4.376,74.94,0.339,,,,
261,4/1/2019 5:00,4.141,74.538,0.043,,,,
262,4/1/2019 5:15,4.037,74.598,-0.048,,,,
263,4/1/2019 5:30,4.141,73.722,-0.096,,,,
264,4/1/2019 5:45,4.089,74.065,-0.088,,,,
265,4/1/2019 6:00,4.141,74.293,0.001,,,,
266,4/1/2019 6:15,4.246,73.525,-0.029,,,,
267,4/1/2019 6:30,4.35,72.809,-0.053,,,,
268,4/1/2019 6:45,4.402,72.628,-0.034,,,,
269,4/1/2019 7:00,4.61,72.56,0.156,,,,
270,4/1/2019 7:15,4.792,72.322,0.289,,,,
271,4/1/2019 7:30,5.282,70.874,0.504,,,,
272,4/1/2019 7:45,5.488,70.804,0.69,,,,
273,4/1/2019 8:00,5.796,69.584,0.762,,,,
274,4/1/2019 8:15,6.102,68.888,0.927,,,,
275,4/1/2019 8:30,6.408,67.71,0.996,,,,
276,4/1/2019 8:45,6.712,67.71,1.289,,,,
277,4/1/2019 9:00,7.393,66.478,1.701,,,,
278,4/1/2019 9:15,7.67,66.698,2.009,,,,
279,4/1/2019 9:30,7.469,67.682,2.009,,,,
280,4/1/2019 9:45,7.519,68.51,2.217,,,,
281,4/1/2019 10:00,7.795,67.261,2.24,,,,
282,4/1/2019 10:15,7.97,67.18,2.392,,,,
283,4/1/2019 10:30,7.895,67.733,2.428,,,,
284,4/1/2019 10:45,8.394,65.633,2.489,,,,
285,4/1/2019 11:00,8.767,64.12,2.535,,,,
286,4/1/2019 11:15,8.618,64.583,2.489,,,,
287,4/1/2019 11:30,8.99,63.408,2.599,,,,
288,4/1/2019 11:45,8.916,63.858,2.622,,,,
289,4/1/2019 12:00,9.435,62.529,2.835,,,,
290,4/1/2019 12:15,9.854,61.609,3.033,,,,
291,4/1/2019 12:30,9.632,62.097,2.929,,,,
292,4/1/2019 12:45,10.492,60.28,3.342,,,,
293,4/1/2019 13:00,10.541,61.08,3.567,,,,
294,4/1/2019 13:15,10.492,60.015,3.283,,,,
295,4/1/2019 13:30,10.761,60.147,3.567,,,,
296,4/1/2019 13:45,10.736,60.819,3.695,,,,
297,4/1/2019 14:00,11.102,59.347,3.707,,,,
298,4/1/2019 14:15,11.151,58.911,3.653,,,,
299,4/1/2019 14:30,12.195,57.35,4.268,,,,
300,4/1/2019 14:45,12.485,56.167,4.253,,,,
301,4/1/2019 15:00,12.775,55.006,4.236,,,,
302,4/1/2019 15:15,11.904,56.677,3.833,,,,
303,4/1/2019 15:30,12.268,53.904,3.483,,,,
304,4/1/2019 15:45,12.243,55.469,3.854,,,,
305,4/1/2019 16:00,12.871,55.081,4.345,,,,
306,4/1/2019 16:15,12.582,54.705,3.98,,,,
307,4/1/2019 16:30,12.195,55.492,3.815,,,,
308,4/1/2019 16:45,11.856,56.79,3.814,,,,
309,4/1/2019 17:00,11.71,57.484,3.844,,,,
310,4/1/2019 17:15,11.662,57.446,3.79,,,,
311,4/1/2019 17:30,11.662,57.744,3.861,,,,
312,4/1/2019 17:45,11.273,59.67,3.942,,,,
313,4/1/2019 18:00,11.2,60.337,4.025,,,,
314,4/1/2019 18:15,10.858,61.836,4.035,,,,
315,4/1/2019 18:30,10.565,63.245,4.062,,,,
316,4/1/2019 18:45,10.345,64.078,4.03,,,,
317,4/1/2019 19:00,10.222,65.097,4.126,,,,
318,4/1/2019 19:15,9.928,65.966,4.023,,,,
319,4/1/2019 19:30,9.46,67.91,3.964,,,,
320,4/1/2019 19:45,9.262,69.15,4.016,,,,
321,4/1/2019 20:00,9.213,69.593,4.053,,,,
322,4/1/2019 20:15,8.668,71.623,3.91,,,,
323,4/1/2019 20:30,8.519,73.042,4.025,,,,
324,4/1/2019 20:45,8.394,74.457,4.157,,,,
325,4/1/2019 21:00,8.195,75.297,4.111,,,,
326,4/1/2019 21:15,7.82,76.752,3.996,,,,
327,4/1/2019 21:30,7.619,78.122,4.031,,,,
328,4/1/2019 21:45,7.519,78.344,3.97,,,,
329,4/1/2019 22:00,7.444,78.814,3.974,,,,
330,4/1/2019 22:15,7.419,79.429,4.05,,,,
331,4/1/2019 22:30,7.091,79.787,3.788,,,,
332,4/1/2019 22:45,6.839,80.961,3.729,,,,
333,4/1/2019 23:00,6.737,81.418,3.702,,,,
334,4/1/2019 23:15,6.813,81.382,3.771,,,,
335,4/1/2019 23:30,6.687,81.406,3.65,,,,
336,4/1/2019 23:45,6.56,81.537,3.547,,,,
337,4/2/2019 0:00,6.484,81.679,3.494,,,,
338,4/2/2019 0:15,6.585,81.17,3.514,,,,
339,4/2/2019 0:30,6.788,80.683,3.635,,,,
340,4/2/2019 0:45,6.99,79.711,3.677,,,,
341,4/2/2019 1:00,6.813,79.886,3.532,,,,
342,4/2/2019 1:15,6.914,79.721,3.605,,,,
343,4/2/2019 1:30,6.914,79.318,3.539,,,,
344,4/2/2019 1:45,6.965,79.598,3.634,,,,
345,4/2/2019 2:00,7.066,79.244,3.675,,,,
346,4/2/2019 2:15,6.914,78.699,3.438,,,,
347,4/2/2019 2:30,7.015,78.64,3.527,,,,
348,4/2/2019 2:45,6.94,78.677,3.459,,,,
349,4/2/2019 3:00,7.116,78.662,3.629,,,,
350,4/2/2019 3:15,6.788,80.416,3.592,,,,
351,4/2/2019 3:30,6.611,80.269,3.395,,,,
352,4/2/2019 3:45,6.102,81.751,3.131,,,,
353,4/2/2019 4:00,5.488,85.932,3.157,,,,
354,4/2/2019 4:15,5.385,87.637,3.302,,,,
355,4/2/2019 4:30,5.179,88.968,3.286,,,,
356,4/2/2019 4:45,5.076,90.062,3.335,,,,
357,4/2/2019 5:00,4.792,90.925,3.17,,,,
358,4/2/2019 5:15,4.688,91.452,3.138,,,,
359,4/2/2019 5:30,4.766,91.22,3.185,,,,
360,4/2/2019 5:45,4.61,91.356,3.048,,,,
361,4/2/2019 6:00,4.688,91.628,3.162,,,,
362,4/2/2019 6:15,4.662,91.671,3.142,,,,
363,4/2/2019 6:30,4.688,91.225,3.108,,,,
364,4/2/2019 6:45,4.921,90.731,3.273,,,,
365,4/2/2019 7:00,5.076,89.477,3.254,,,,
366,4/2/2019 7:15,5.179,88.304,3.193,,,,
367,4/2/2019 7:30,5.36,87.836,3.305,,,,
368,4/2/2019 7:45,5.591,87.327,3.461,,,,
369,4/2/2019 8:00,5.719,86.791,3.51,,,,
370,4/2/2019 8:15,5.975,86.076,3.659,,,,
371,4/2/2019 8:30,6.153,86.015,3.826,,,,
372,4/2/2019 8:45,6.179,85.24,3.737,,,,
373,4/2/2019 9:00,6.026,84.315,3.448,,,,
374,4/2/2019 9:15,5.821,84.998,3.349,,,,
375,4/2/2019 9:30,5.745,86.176,3.446,,,,
376,4/2/2019 9:45,5.693,86.163,3.394,,,,
377,4/2/2019 10:00,6.382,85.288,3.945,,,,
378,4/2/2019 10:15,6.484,80.401,3.292,,,,
379,4/2/2019 10:30,6.839,78.979,3.41,,,,
380,4/2/2019 10:45,6.864,77.309,3.159,,,,
381,4/2/2019 11:00,7.116,72.484,2.567,,,,
382,4/2/2019 11:15,7.318,70.325,2.367,,,,
383,4/2/2019 11:30,7.268,69.727,2.206,,,,
384,4/2/2019 11:45,7.393,67.045,1.813,,,,
385,4/2/2019 12:00,7.72,66.139,1.946,,,,
386,4/2/2019 12:15,8.22,62.582,1.691,,,,
387,4/2/2019 12:30,8.344,62.314,1.752,,,,
388,4/2/2019 12:45,7.619,65.978,1.818,,,,
389,4/2/2019 13:00,6.99,71.904,2.341,,,,
390,4/2/2019 13:15,8.866,63.04,2.403,,,,
391,4/2/2019 13:30,8.593,60.582,1.613,,,,
392,4/2/2019 13:45,8.916,58.141,1.369,,,,
393,4/2/2019 14:00,8.519,61.85,1.819,,,,
394,4/2/2019 14:15,8.369,61.069,1.508,,,,
395,4/2/2019 14:30,8.195,58.585,0.79,,,,
396,4/2/2019 14:45,9.287,57.757,1.629,,,,
397,4/2/2019 15:00,10.222,54.056,1.613,,,,
398,4/2/2019 15:15,10.247,52.674,1.285,,,,
399,4/2/2019 15:30,9.682,52.834,0.8,,,,
400,4/2/2019 15:45,9.829,52.01,0.725,,,,
401,4/2/2019 16:00,9.46,54.513,1.014,,,,
402,4/2/2019 16:15,7.945,61.086,1.109,,,,
403,4/2/2019 16:30,7.87,61.885,1.21,,,,
404,4/2/2019 16:45,8.02,60.807,1.12,,,,
405,4/2/2019 17:00,7.92,57.129,0.197,,,,
406,4/2/2019 17:15,7.795,56.312,-0.111,,,,
407,4/2/2019 17:30,7.419,60.62,0.509,,,,
408,4/2/2019 17:45,6.864,65.215,0.943,,,,
409,4/2/2019 18:00,6.484,67.555,1.04,,,,
410,4/2/2019 18:15,6.255,68.356,0.973,,,,
411,4/2/2019 18:30,6.026,68.818,0.84,,,,
412,4/2/2019 18:45,5.949,69.027,0.806,,,,
413,4/2/2019 19:00,5.898,69.101,0.771,,,,
414,4/2/2019 19:15,5.898,68.457,0.649,,,,
415,4/2/2019 19:30,5.872,69.124,0.75,,,,
416,4/2/2019 19:45,5.488,71.109,0.745,,,,
417,4/2/2019 20:00,5.154,72.642,0.696,,,,
418,4/2/2019 20:15,5.179,72.4,0.678,,,,
419,4/2/2019 20:30,5.179,72.207,0.644,,,,
420,4/2/2019 20:45,4.921,73.034,0.54,,,,
421,4/2/2019 21:00,4.74,73.818,0.5,,,,
422,4/2/2019 21:15,4.662,74.238,0.497,,,,
423,4/2/2019 21:30,4.558,74.733,0.481,,,,
424,4/2/2019 21:45,4.532,75.271,0.547,,,,
425,4/2/2019 22:00,4.506,75.996,0.643,,,,
426,4/2/2019 22:15,4.246,77.179,0.585,,,,
427,4/2/2019 22:30,4.063,78.371,0.6,,,,
428,4/2/2019 22:45,3.932,79.247,0.611,,,,
429,4/2/2019 23:00,3.827,79.834,0.601,,,,
430,4/2/2019 23:15,3.722,80.471,0.598,,,,
431,4/2/2019 23:30,3.538,81.85,0.629,,,,
432,4/2/2019 23:45,3.274,82.964,0.538,,,,
433,4/3/2019 0:00,3.168,83.33,0.488,,,,
434,4/3/2019 0:15,3.009,84.045,0.437,,,,
435,4/3/2019 0:30,2.956,84.626,0.469,,,,
436,4/3/2019 0:45,2.77,84.968,0.335,,,,
437,4/3/2019 1:00,2.77,84.788,0.309,,,,
438,4/3/2019 1:15,2.53,85.219,0.135,,,,
439,4/3/2019 1:30,2.45,85.815,0.141,,,,
440,4/3/2019 1:45,2.289,85.802,-0.02,,,,
441,4/3/2019 2:00,2.128,85.814,-0.177,,,,
442,4/3/2019 2:15,2.236,85.533,-0.111,,,,
443,4/3/2019 2:30,2.021,86.145,-0.237,,,,
444,4/3/2019 2:45,1.832,86.71,-0.344,,,,
445,4/3/2019 3:00,1.697,86.982,-0.44,,,,
446,4/3/2019 3:15,1.697,86.753,-0.472,,,,
447,4/3/2019 3:30,1.425,86.915,-0.717,,,,
448,4/3/2019 3:45,1.425,87.674,-0.612,,,,
449,4/3/2019 4:00,1.48,87.965,-0.519,,,,
450,4/3/2019 4:15,1.317,88.277,-0.638,,,,
451,4/3/2019 4:30,1.18,88.594,-0.73,,,,
452,4/3/2019 4:45,1.317,89.256,-0.506,,,,
453,4/3/2019 5:00,1.425,89.008,-0.431,,,,
454,4/3/2019 5:15,1.398,88.524,-0.523,,,,
455,4/3/2019 5:30,1.262,88.841,-0.616,,,,
456,4/3/2019 5:45,1.289,89.199,-0.54,,,,
457,4/3/2019 6:00,1.371,88.869,-0.504,,,,
458,4/3/2019 6:15,1.48,88.746,-0.413,,,,
459,4/3/2019 6:30,1.643,88.182,-0.328,,,,
460,4/3/2019 6:45,1.886,87.51,-0.179,,,,
461,4/3/2019 7:00,2.53,85.604,0.19,,,,
462,4/3/2019 7:15,2.983,84.788,0.519,,,,
463,4/3/2019 7:30,3.564,83.527,0.907,,,,
464,4/3/2019 7:45,3.958,81.605,1.004,,,,
465,4/3/2019 8:00,4.376,79.983,1.162,,,,
466,4/3/2019 8:15,4.869,78.841,1.463,,,,
467,4/3/2019 8:30,5.154,78.207,1.638,,,,
468,4/3/2019 8:45,5.462,76.198,1.607,,,,
469,4/3/2019 9:00,5.591,74.211,1.394,,,,
470,4/3/2019 9:15,5.437,75.759,1.509,,,,
471,4/3/2019 9:30,5.205,74.84,1.128,,,,
472,4/3/2019 9:45,5.693,74.724,1.582,,,,
473,4/3/2019 10:00,6.102,72.75,1.633,,,,
474,4/3/2019 10:15,5.898,71.633,1.236,,,,
475,4/3/2019 10:30,5.847,71.068,1.084,,,,
476,4/3/2019 10:45,6.128,69.648,1.094,,,,
477,4/3/2019 11:00,6.357,69.525,1.292,,,,
478,4/3/2019 11:15,5.949,72.637,1.465,,,,
479,4/3/2019 11:30,6.408,70.483,1.518,,,,
480,4/3/2019 11:45,6.56,70.346,1.64,,,,
481,4/3/2019 12:00,6.914,68.846,1.7,,,,
482,4/3/2019 12:15,6.99,68.608,1.728,,,,
483,4/3/2019 12:30,7.318,68.951,2.108,,,,
484,4/3/2019 12:45,7.695,67.752,2.24,,,,
485,4/3/2019 13:00,7.041,67.32,1.528,,,,
486,4/3/2019 13:15,7.619,65.322,1.686,,,,
487,4/3/2019 13:30,7.015,65.84,1.213,,,,
488,4/3/2019 13:45,7.318,68.641,2.049,,,,
489,4/3/2019 14:00,8.02,65.822,2.17,,,,
490,4/3/2019 14:15,8.319,63.35,1.948,,,,
491,4/3/2019 14:30,9.238,61.068,2.33,,,,
492,4/3/2019 14:45,8.145,60.216,1.108,,,,
493,4/3/2019 15:00,7.87,60.753,0.966,,,,
494,4/3/2019 15:15,8.693,60.511,1.692,,,,
495,4/3/2019 15:30,8.693,57.368,0.979,,,,
496,4/3/2019 15:45,8.344,59.225,1.076,,,,
497,4/3/2019 16:00,10.858,55.44,2.551,,,,
498,4/3/2019 16:15,10.32,57.119,2.451,,,,
499,4/3/2019 16:30,10.075,59.123,2.687,,,,
500,4/3/2019 16:45,9.238,57.217,1.457,,,,
501,4/3/2019 17:00,5.847,76.334,2.005,,,,
502,4/3/2019 17:15,5.514,80.53,2.362,,,,
503,4/3/2019 17:30,6.23,78.119,2.674,,,,
504,4/3/2019 17:45,5.924,78.402,2.422,,,,
505,4/3/2019 18:00,6.382,75.112,2.318,,,,
506,4/3/2019 18:15,6.306,74.303,2.104,,,,
507,4/3/2019 18:30,5.898,78.316,2.383,,,,
508,4/3/2019 18:45,5.565,80.887,2.469,,,,
509,4/3/2019 19:00,5.154,83.036,2.396,,,,
510,4/3/2019 19:15,5.128,84.573,2.602,,,,
511,4/3/2019 19:30,5.154,85.515,2.766,,,,
512,4/3/2019 19:45,5.231,85.974,2.909,,,,
513,4/3/2019 20:00,5.282,83.433,2.583,,,,
514,4/3/2019 20:15,5.385,80.846,2.286,,,,
515,4/3/2019 20:30,5.257,83.27,2.533,,,,
516,4/3/2019 20:45,5.154,84.214,2.574,,,,
517,4/3/2019 21:00,5.024,84.366,2.469,,,,
518,4/3/2019 21:15,4.869,85.654,2.506,,,,
519,4/3/2019 21:30,4.818,86.287,2.547,,,,
520,4/3/2019 21:45,4.662,86.842,2.473,,,,
521,4/3/2019 22:00,4.428,85.444,2.04,,,,
522,4/3/2019 22:15,4.324,85.729,1.979,,,,
523,4/3/2019 22:30,4.115,85.988,1.81,,,,
524,4/3/2019 22:45,4.037,86.021,1.737,,,,
525,4/3/2019 23:00,3.906,86.862,1.728,,,,
526,4/3/2019 23:15,3.88,86.753,1.687,,,,
527,4/3/2019 23:30,3.854,87.438,1.758,,,,
528,4/3/2019 23:45,3.722,88.349,1.755,,,,
529,4/4/2019 0:00,3.775,88.87,1.88,,,,
530,4/4/2019 0:15,3.643,89.04,1.773,,,,
531,4/4/2019 0:30,3.591,89.558,1.792,,,,
532,4/4/2019 0:45,3.512,89.866,1.755,,,,
533,4/4/2019 1:00,3.617,90.144,1.897,,,,
534,4/4/2019 1:15,3.485,90.463,1.81,,,,
535,4/4/2019 1:30,3.512,90.972,1.904,,,,
536,4/4/2019 1:45,3.564,91.286,1.999,,,,
537,4/4/2019 2:00,3.564,91.236,1.992,,,,
538,4/4/2019 2:15,3.485,91.391,1.934,,,,
539,4/4/2019 2:30,3.327,91.799,1.83,,,,
540,4/4/2019 2:45,3.248,91.803,1.752,,,,
541,4/4/2019 3:00,3.406,91.745,1.902,,,,
542,4/4/2019 3:15,3.354,91.731,1.848,,,,
543,4/4/2019 3:30,3.195,91.989,1.724,,,,
544,4/4/2019 3:45,3.248,91.903,1.765,,,,
545,4/4/2019 4:00,3.142,91.676,1.63,,,,
546,4/4/2019 4:15,3.036,91.648,1.521,,,,
547,4/4/2019 4:30,3.063,91.905,1.581,,,,
548,4/4/2019 4:45,2.903,91.913,1.423,,,,
549,4/4/2019 5:00,2.956,92.2,1.514,,,,
550,4/4/2019 5:15,3.116,92.366,1.694,,,,
551,4/4/2019 5:30,3.142,91.975,1.669,,,,
552,4/4/2019 5:45,3.116,91.819,1.622,,,,
553,4/4/2019 6:00,3.195,91.64,1.678,,,,
554,4/4/2019 6:15,3.248,91.554,1.719,,,,